﻿"﻿最低氣溫 (攝氏度) - �]���a"
"Minimum Temperature (°C) - Happy Valley"
年/Year,月/Month,日/Day,數值/Value,"數據完整性/data Completeness"
2008,12,1,12.1,#
2008,12,2,11.4,#
2008,12,3,16.9,#
2008,12,4,20.2,#
2008,12,5,16.1,#
2008,12,6,13.1,#
2008,12,7,12.1,#
2008,12,8,14.7,#
2008,12,9,10.5,#
2008,12,10,13.7,#
2008,12,11,12.5,#
2008,12,12,18.4,#
2008,12,13,18.9,#
2008,12,14,16.1,#
2008,12,15,12.8,#
2008,12,16,13.3,#
2008,12,17,13.2,#
2008,12,18,11.4,#
2008,12,19,16.5,#
2008,12,20,15.1,#
2008,12,21,17.2,#
2008,12,22,12.7,#
2008,12,23,11.2,#
2008,12,24,15.1,#
2008,12,25,14.3,#
2008,12,26,16.4,#
2008,12,27,17.2,#
2008,12,28,17.4,C
2008,12,29,17.6,#
2008,12,30,15.6,#
2008,12,31,12.5,#
2009,1,1,11.2,#
2009,1,2,9.8,#
2009,1,3,12.4,C
2009,1,4,14.3,C
2009,1,5,14.9,#
2009,1,6,15.3,#
2009,1,7,13.3,#
2009,1,8,11.8,#
2009,1,9,9.4,#
2009,1,10,8.4,#
2009,1,11,6.8,#
2009,1,12,8.9,#
2009,1,13,9.5,#
2009,1,14,7.6,#
2009,1,15,9.5,#
2009,1,16,9.7,#
2009,1,17,11.5,#
2009,1,18,11.8,C
2009,1,19,16.3,#
2009,1,20,15.3,#
2009,1,21,17.0,#
2009,1,22,14.6,#
2009,1,23,13.9,#
2009,1,24,10.4,C
2009,1,25,10.8,#
2009,1,26,12.4,C
2009,1,27,11.0,#
2009,1,28,12.3,C
2009,1,29,14.7,#
2009,1,30,13.1,#
2009,1,31,12.8,C
2009,2,1,15.7,#
2009,2,2,15.3,#
2009,2,3,12.9,#
2009,2,4,15.1,#
2009,2,5,15.0,#
2009,2,6,17.6,#
2009,2,7,15.8,C
2009,2,8,18.0,#
2009,2,9,17.0,#
2009,2,10,14.8,C
2009,2,11,15.0,#
2009,2,12,16.4,#
2009,2,13,21.7,#
2009,2,14,22.4,#
2009,2,15,20.2,#
2009,2,16,17.2,#
2009,2,17,16.3,#
2009,2,18,16.8,#
2009,2,19,17.2,#
2009,2,20,16.5,#
2009,2,21,16.5,#
2009,2,22,17.7,#
2009,2,23,21.0,#
2009,2,24,21.5,#
2009,2,25,21.0,#
2009,2,26,19.1,#
2009,2,27,19.0,#
2009,2,28,18.7,C
2009,3,1,17.6,C
2009,3,2,16.7,#
2009,3,3,16.5,#
2009,3,4,17.2,#
2009,3,5,18.1,#
2009,3,6,13.8,#
2009,3,7,13.3,C
2009,3,8,14.0,C
2009,3,9,15.1,#
2009,3,10,16.5,#
2009,3,11,17.0,#
2009,3,12,17.7,#
2009,3,13,13.6,#
2009,3,14,12.6,#
2009,3,15,13.0,#
2009,3,16,16.7,#
2009,3,17,15.8,#
2009,3,18,17.5,#
2009,3,19,18.4,#
2009,3,20,20.0,#
2009,3,21,21.4,#
2009,3,22,23.9,#
2009,3,23,21.9,#
2009,3,24,19.0,#
2009,3,25,16.7,#
2009,3,26,17.9,#
2009,3,27,17.7,#
2009,3,28,19.7,C
2009,3,29,18.5,#
2009,3,30,17.3,#
2009,3,31,17.1,#
2009,4,1,18.3,#
2009,4,2,16.2,#
2009,4,3,15.7,#
2009,4,4,19.4,C
2009,4,5,20.8,#
2009,4,6,16.5,#
2009,4,7,15.7,#
2009,4,8,18.1,#
2009,4,9,19.3,#
2009,4,10,19.5,#
2009,4,11,19.3,#
2009,4,12,20.0,#
2009,4,13,20.8,#
2009,4,14,20.4,#
2009,4,15,21.5,#
2009,4,16,21.2,#
2009,4,17,20.1,#
2009,4,18,21.2,#
2009,4,19,21.9,#
2009,4,20,25.4,#
2009,4,21,21.4,#
2009,4,22,20.0,#
2009,4,23,20.2,#
2009,4,24,21.3,#
2009,4,25,19.9,#
2009,4,26,18.2,#
2009,4,27,19.0,#
2009,4,28,19.9,#
2009,4,29,19.4,#
2009,4,30,20.6,#
2009,5,1,20.7,#
2009,5,2,20.4,#
2009,5,3,19.2,#
2009,5,4,20.6,#
2009,5,5,21.7,#
2009,5,6,21.4,#
2009,5,7,20.8,#
2009,5,8,21.1,#
2009,5,9,22.5,#
2009,5,10,23.8,#
2009,5,11,24.4,#
2009,5,12,23.4,#
2009,5,13,23.5,#
2009,5,14,23.9,#
2009,5,15,23.3,#
2009,5,16,22.7,#
2009,5,17,24.4,#
2009,5,18,25.7,#
2009,5,19,26.1,#
2009,5,20,23.6,#
2009,5,21,25.4,#
2009,5,22,26.1,#
2009,5,23,24.7,#
2009,5,24,24.8,#
2009,5,25,24.6,#
2009,5,26,23.1,#
2009,5,27,23.7,#
2009,5,28,23.0,C
2009,5,29,20.0,#
2009,5,30,20.0,#
2009,5,31,22.1,#
2009,6,1,22.4,#
2009,6,2,23.8,C
2009,6,3,25.2,C
2009,6,4,25.2,C
2009,6,5,23.5,#
2009,6,6,23.9,C
2009,6,7,24.2,C
2009,6,8,25.6,C
2009,6,9,24.5,#
2009,6,10,25.0,#
2009,6,11,24.4,#
2009,6,12,24.4,#
2009,6,13,26.9,C
2009,6,14,25.1,#
2009,6,15,25.0,#
2009,6,16,25.6,#
2009,6,17,26.1,#
2009,6,18,25.8,#
2009,6,19,26.3,#
2009,6,20,27.0,#
2009,6,21,27.3,C
2009,6,22,27.1,#
2009,6,23,28.0,C
2009,6,24,26.3,#
2009,6,25,26.6,#
2009,6,26,26.1,C
2009,6,27,24.6,C
2009,6,28,24.5,#
2009,6,29,27.2,#
2009,6,30,27.9,#
2009,7,1,27.5,#
2009,7,2,27.4,#
2009,7,3,27.0,#
2009,7,4,24.4,#
2009,7,5,23.7,#
2009,7,6,23.1,#
2009,7,7,26.8,#
2009,7,8,26.5,#
2009,7,9,26.7,#
2009,7,10,27.1,#
2009,7,11,26.4,#
2009,7,12,28.0,#
2009,7,13,26.5,#
2009,7,14,27.5,#
2009,7,15,27.8,#
2009,7,16,28.5,#
2009,7,17,27.2,#
2009,7,18,26.1,#
2009,7,19,24.4,#
2009,7,20,25.7,#
2009,7,21,27.0,#
2009,7,22,25.9,#
2009,7,23,26.6,#
2009,7,24,27.6,#
2009,7,25,28.2,#
2009,7,26,26.8,#
2009,7,27,25.4,C
2009,7,28,26.7,#
2009,7,29,27.8,#
2009,7,30,28.2,#
2009,7,31,27.3,C
2009,8,1,25.9,#
2009,8,2,27.8,C
2009,8,3,27.2,#
2009,8,4,26.8,#
2009,8,5,26.3,#
2009,8,6,27.5,C
2009,8,7,25.6,C
2009,8,8,28.4,#
2009,8,9,28.8,C
2009,8,10,27.9,C
2009,8,11,25.7,#
2009,8,12,25.8,C
2009,8,13,24.7,C
2009,8,14,25.1,#
2009,8,15,26.4,#
2009,8,16,27.5,C
2009,8,17,26.6,#
2009,8,18,26.1,C
2009,8,19,26.3,#
2009,8,20,26.5,C
2009,8,21,26.9,C
2009,8,22,27.0,C
2009,8,23,27.8,C
2009,8,24,27.6,C
2009,8,25,28.2,C
2009,8,26,27.6,#
2009,8,27,27.2,#
2009,8,28,26.9,#
2009,8,29,28.6,C
2009,8,30,27.9,C
2009,8,31,27.2,C
2009,9,1,27.9,C
2009,9,2,27.4,C
2009,9,3,27.6,C
2009,9,4,26.9,C
2009,9,5,28.1,C
2009,9,6,27.2,C
2009,9,7,27.7,C
2009,9,8,25.8,C
2009,9,9,25.6,C
2009,9,10,26.8,C
2009,9,11,25.9,C
2009,9,12,26.1,C
2009,9,13,25.6,C
2009,9,14,25.3,#
2009,9,15,24.6,C
2009,9,16,26.0,C
2009,9,17,26.1,#
2009,9,18,25.9,C
2009,9,19,27.2,C
2009,9,20,27.5,C
2009,9,21,27.0,C
2009,9,22,25.8,C
2009,9,23,24.6,C
2009,9,24,26.9,C
2009,9,25,27.7,#
2009,9,26,26.1,C
2009,9,27,27.6,C
2009,9,28,23.8,#
2009,9,29,24.2,C
2009,9,30,24.2,C
2009,10,1,23.9,C
2009,10,2,23.8,C
2009,10,3,25.5,C
2009,10,4,23.7,C
2009,10,5,25.5,C
2009,10,6,26.5,C
2009,10,7,24.3,#
2009,10,8,23.0,#
2009,10,9,21.6,C
2009,10,10,23.5,#
2009,10,11,23.7,C
2009,10,12,23.0,#
2009,10,13,25.2,#
2009,10,14,24.5,#
2009,10,15,23.5,#
2009,10,16,22.1,C
2009,10,17,23.5,#
2009,10,18,24.2,#
2009,10,19,24.9,#
2009,10,20,22.5,#
2009,10,21,24.0,C
2009,10,22,22.6,C
2009,10,23,21.6,C
2009,10,24,23.0,#
2009,10,25,22.5,C
2009,10,26,22.3,#
2009,10,27,23.2,#
2009,10,28,21.8,#
2009,10,29,22.0,#
2009,10,30,20.7,C
2009,10,31,22.8,C
2009,11,1,23.9,C
2009,11,2,19.5,#
2009,11,3,15.7,C
2009,11,4,15.4,#
2009,11,5,20.5,#
2009,11,6,21.3,#
2009,11,7,23.2,C
2009,11,8,23.9,C
2009,11,9,23.5,C
2009,11,10,23.0,C
2009,11,11,23.2,C
2009,11,12,23.0,#
2009,11,13,16.3,C
2009,11,14,15.6,C
2009,11,15,18.1,C
2009,11,16,12.7,C
2009,11,17,10.4,C
2009,11,18,9.4,C
2009,11,19,11.9,C
2009,11,20,13.4,#
2009,11,21,12.3,C
2009,11,22,13.3,C
2009,11,23,12.8,C
2009,11,24,16.4,C
2009,11,25,16.9,#
2009,11,26,20.3,C
2009,11,27,19.4,C
2009,11,28,19.1,#
2009,11,29,18.8,C
2009,11,30,16.0,#
2009,12,1,14.8,C
2009,12,2,17.5,#
2009,12,3,15.1,C
2009,12,4,13.9,C
2009,12,5,13.4,#
2009,12,6,16.0,C
2009,12,7,16.4,C
2009,12,8,17.9,#
2009,12,9,18.4,#
2009,12,10,16.5,#
2009,12,11,17.7,#
2009,12,12,19.5,C
2009,12,13,18.2,#
2009,12,14,17.6,C
2009,12,15,16.2,#
2009,12,16,12.9,#
2009,12,17,11.3,C
2009,12,18,11.2,C
2009,12,19,11.6,C
2009,12,20,10.4,#
2009,12,21,12.4,#
2009,12,22,13.6,C
2009,12,23,15.4,C
2009,12,24,15.5,C
2009,12,25,15.3,C
2009,12,26,16.0,C
2009,12,27,10.4,#
2009,12,28,8.9,#
2009,12,29,13.1,C
2009,12,30,16.5,#
2009,12,31,15.0,#
2010,1,1,14.6,#
2010,1,2,16.0,C
2010,1,3,15.7,C
2010,1,4,15.0,C
2010,1,5,15.7,#
2010,1,6,14.2,#
2010,1,7,12.5,#
2010,1,8,11.5,#
2010,1,9,12.8,C
2010,1,10,15.5,C
2010,1,11,12.1,C
2010,1,12,9.7,#
2010,1,13,8.3,C
2010,1,14,10.1,#
2010,1,15,13.3,#
2010,1,16,13.3,#
2010,1,17,13.8,#
2010,1,18,13.8,#
2010,1,19,15.5,#
2010,1,20,19.0,#
2010,1,21,21.0,#
2010,1,22,15.7,C
2010,1,23,14.1,C
2010,1,24,13.7,C
2010,1,25,15.9,C
2010,1,26,14.4,#
2010,1,27,14.9,#
2010,1,28,17.3,C
2010,1,29,16.8,#
2010,1,30,16.9,C
2010,1,31,18.1,C
2010,2,1,17.7,C
2010,2,2,17.3,C
2010,2,3,16.5,C
2010,2,4,15.9,C
2010,2,5,16.2,C
2010,2,6,16.7,C
2010,2,7,16.3,C
2010,2,8,17.0,#
2010,2,9,21.4,C
2010,2,10,22.6,C
2010,2,11,23.0,C
2010,2,12,11.9,C
2010,2,13,11.1,C
2010,2,14,14.4,#
2010,2,15,10.8,#
2010,2,16,8.6,C
2010,2,17,8.6,C
2010,2,18,7.9,C
2010,2,19,7.3,#
2010,2,20,10.9,#
2010,2,21,13.9,C
2010,2,22,17.0,#
2010,2,23,16.7,#
2010,2,24,20.8,C
2010,2,25,22.5,#
2010,2,26,23.2,C
2010,2,27,23.6,C
2010,2,28,22.8,C
2010,3,1,22.0,#
2010,3,2,23.6,#
2010,3,3,23.9,#
2010,3,4,24.1,#
2010,3,5,24.2,#
2010,3,6,24.5,#
2010,3,7,16.1,C
2010,3,8,13.1,#
2010,3,9,9.0,C
2010,3,10,8.1,C
2010,3,11,9.1,#
2010,3,12,14.6,#
2010,3,13,17.2,C
2010,3,14,19.3,C
2010,3,15,20.9,C
2010,3,16,17.1,#
2010,3,17,16.9,C
2010,3,18,17.6,C
2010,3,19,16.8,C
2010,3,20,17.9,C
2010,3,21,17.3,C
2010,3,22,18.8,C
2010,3,23,20.4,C
2010,3,24,21.2,#
2010,3,25,15.3,C
2010,3,26,15.0,#
2010,3,27,16.2,#
2010,3,28,15.1,#
2010,3,29,18.1,#
2010,3,30,17.4,#
2010,3,31,20.0,#
2010,4,1,21.4,C
2010,4,2,17.6,C
2010,4,3,16.9,C
2010,4,4,17.0,#
2010,4,5,21.8,#
2010,4,6,21.8,C
2010,4,7,17.4,C
2010,4,8,15.0,C
2010,4,9,17.4,C
2010,4,10,18.7,#
2010,4,11,20.2,#
2010,4,12,25.7,#
2010,4,13,18.8,#
2010,4,14,17.6,C
2010,4,15,13.4,#
2010,4,16,14.5,C
2010,4,17,16.1,C
2010,4,18,17.8,C
2010,4,19,20.0,C
2010,4,20,21.8,#
2010,4,21,25.0,C
2010,4,22,21.5,#
2010,4,23,19.1,C
2010,4,24,19.0,C
2010,4,25,18.9,C
2010,4,26,20.1,C
2010,4,27,19.5,#
2010,4,28,20.7,C
2010,4,29,18.1,C
2010,4,30,18.1,#
2010,5,1,20.2,C
2010,5,2,20.8,C
2010,5,3,19.8,#
2010,5,4,22.9,#
2010,5,5,23.8,#
2010,5,6,25.2,C
2010,5,7,22.6,#
2010,5,8,25.0,C
2010,5,9,25.2,#
2010,5,10,22.4,#
2010,5,11,22.7,#
2010,5,12,23.1,C
2010,5,13,22.6,C
2010,5,14,23.6,#
2010,5,15,22.9,C
2010,5,16,22.5,C
2010,5,17,23.9,#
2010,5,18,24.7,C
2010,5,19,22.4,C
2010,5,20,22.1,C
2010,5,21,27.1,C
2010,5,22,27.6,C
2010,5,23,23.6,#
2010,5,24,20.2,C
2010,5,25,22.7,C
2010,5,26,23.5,#
2010,5,27,24.5,#
2010,5,28,24.6,#
2010,5,29,25.2,#
2010,5,30,25.2,#
2010,5,31,24.1,C
2010,6,1,21.9,C
2010,6,2,21.1,C
2010,6,3,20.8,C
2010,6,4,22.5,#
2010,6,5,22.8,#
2010,6,6,23.1,C
2010,6,7,22.8,C
2010,6,8,24.1,#
2010,6,9,25.2,#
2010,6,10,25.0,C
2010,6,11,25.2,#
2010,6,12,26.4,#
2010,6,13,26.8,#
2010,6,14,28.2,#
2010,6,15,28.7,#
2010,6,16,28.2,#
2010,6,17,28.7,#
2010,6,18,28.6,#
2010,6,19,28.5,#
2010,6,20,28.8,#
2010,6,21,28.6,#
2010,6,22,28.3,#
2010,6,23,25.4,C
2010,6,24,25.4,C
2010,6,25,28.0,#
2010,6,26,25.5,#
2010,6,27,24.5,#
2010,6,28,24.6,#
2010,6,29,24.4,#
2010,6,30,26.3,#
2010,7,1,26.9,#
2010,7,2,28.7,C
2010,7,3,29.0,C
2010,7,4,29.3,#
2010,7,5,29.0,#
2010,7,6,29.3,#
2010,7,7,29.4,#
2010,7,8,28.2,#
2010,7,9,29.1,C
2010,7,10,27.5,#
2010,7,11,27.6,#
2010,7,12,28.8,#
2010,7,13,27.6,#
2010,7,14,28.4,#
2010,7,15,26.5,C
2010,7,16,25.5,#
2010,7,17,24.4,C
2010,7,18,24.4,#
2010,7,19,26.5,#
2010,7,20,26.8,C
2010,7,21,25.3,#
2010,7,22,24.9,#
2010,7,23,26.1,#
2010,7,24,26.4,C
2010,7,25,26.4,C
2010,7,26,27.6,C
2010,7,27,25.9,#
2010,7,28,24.0,#
2010,7,29,25.4,C
2010,7,30,28.1,#
2010,7,31,28.4,#
2010,8,1,28.9,C
2010,8,2,27.2,#
2010,8,3,27.1,#
2010,8,4,27.5,#
2010,8,5,24.3,#
2010,8,6,24.7,C
2010,8,7,26.3,#
2010,8,8,26.3,C
2010,8,9,28.5,#
2010,8,10,27.3,C
2010,8,11,27.8,C
2010,8,12,27.0,C
2010,8,13,27.8,#
2010,8,14,28.3,C
2010,8,15,26.5,#
2010,8,16,25.4,#
2010,8,17,25.2,#
2010,8,18,26.3,#
2010,8,19,26.1,#
2010,8,20,24.1,#
2010,8,21,27.2,#
2010,8,22,26.1,#
2010,8,23,24.9,C
2010,8,24,25.3,#
2010,8,25,25.3,C
2010,8,26,26.5,C
2010,8,27,25.4,#
2010,8,28,26.4,#
2010,8,29,27.0,C
2010,8,30,27.5,#
2010,8,31,27.8,C
2010,9,1,29.4,#
2010,9,2,25.9,C
2010,9,3,24.7,C
2010,9,4,26.2,C
2010,9,5,25.5,#
2010,9,6,25.7,C
2010,9,7,28.6,#
2010,9,8,26.1,C
2010,9,9,25.3,#
2010,9,10,24.7,#
2010,9,11,24.8,#
2010,9,12,24.1,C
2010,9,13,23.6,C
2010,9,14,26.4,#
2010,9,15,25.6,C
2010,9,16,25.4,#
2010,9,17,25.4,#
2010,9,18,26.8,C
2010,9,19,28.3,#
2010,9,20,24.9,C
2010,9,21,23.0,#
2010,9,22,24.9,C
2010,9,23,25.3,C
2010,9,24,25.5,#
2010,9,25,26.7,C
2010,9,26,26.3,#
2010,9,27,26.3,#
2010,9,28,25.6,C
2010,9,29,27.8,C
2010,9,30,26.9,C
2010,10,1,26.9,#
2010,10,2,26.5,#
2010,10,3,27.2,#
2010,10,4,25.1,#
2010,10,5,22.8,C
2010,10,6,22.8,C
2010,10,7,24.7,#
2010,10,8,25.8,#
2010,10,9,23.8,C
2010,10,10,24.6,C
2010,10,11,26.4,#
2010,10,12,26.2,#
2010,10,13,26.1,#
2010,10,14,26.1,C
2010,10,15,23.6,#
2010,10,16,23.5,#
2010,10,17,25.0,C
2010,10,18,24.9,#
2010,10,19,23.5,C
2010,10,20,25.6,C
2010,10,21,24.1,#
2010,10,22,22.1,C
2010,10,23,22.6,#
2010,10,24,22.6,C
2010,10,25,23.5,C
2010,10,26,19.8,#
2010,10,27,17.6,C
2010,10,28,16.1,C
2010,10,29,16.9,C
2010,10,30,15.6,#
2010,10,31,16.9,C
2010,11,1,17.1,#
2010,11,2,19.2,C
2010,11,3,19.2,#
2010,11,4,17.9,#
2010,11,5,17.1,C
2010,11,6,17.5,#
2010,11,7,18.4,#
2010,11,8,17.2,C
2010,11,9,17.1,#
2010,11,10,18.8,#
2010,11,11,17.2,#
2010,11,12,16.7,#
2010,11,13,21.0,C
2010,11,14,21.6,#
2010,11,15,21.7,#
2010,11,16,20.6,#
2010,11,17,18.9,#
2010,11,18,19.8,#
2010,11,19,19.8,C
2010,11,20,18.6,C
2010,11,21,19.4,C
2010,11,22,18.1,C
2010,11,23,20.0,#
2010,11,24,19.5,C
2010,11,25,18.3,C
2010,11,26,17.7,C
2010,11,27,18.3,#
2010,11,28,19.1,C
2010,11,29,18.1,#
2010,11,30,17.6,C
2010,12,1,17.8,C
2010,12,2,17.8,C
2010,12,3,16.4,#
2010,12,4,19.0,C
2010,12,5,18.7,C
2010,12,6,18.9,C
2010,12,7,16.3,C
2010,12,8,14.8,C
2010,12,9,11.5,C
2010,12,10,17.5,C
2010,12,11,19.6,C
2010,12,12,18.6,C
2010,12,13,20.1,#
2010,12,14,19.3,C
2010,12,15,11.5,#
2010,12,16,7.8,C
2010,12,17,5.5,#
2010,12,18,6.2,C
2010,12,19,15.1,C
2010,12,20,14.5,#
2010,12,21,17.0,#
2010,12,22,15.3,C
2010,12,23,14.9,C
2010,12,24,17.2,C
2010,12,25,11.6,#
2010,12,26,10.2,#
2010,12,27,6.6,C
2010,12,28,8.2,C
2010,12,29,10.7,C
2010,12,30,12.3,C
2010,12,31,11.5,C
2011,1,1,11.3,#
2011,1,2,14.0,C
2011,1,3,13.5,C
2011,1,4,11.8,#
2011,1,5,13.8,C
2011,1,6,11.7,C
2011,1,7,9.6,#
2011,1,8,8.8,C
2011,1,9,9.2,C
2011,1,10,11.3,#
2011,1,11,8.9,C
2011,1,12,7.2,C
2011,1,13,9.9,C
2011,1,14,13.9,C
2011,1,15,10.3,#
2011,1,16,9.4,C
2011,1,17,9.2,#
2011,1,18,12.4,C
2011,1,19,13.0,C
2011,1,20,14.9,#
2011,1,21,10.9,C
2011,1,22,11.9,C
2011,1,23,12.9,C
2011,1,24,12.2,C
2011,1,25,12.4,C
2011,1,26,11.1,#
2011,1,27,14.2,#
2011,1,28,13.3,C
2011,1,29,9.8,#
2011,1,30,9.1,#
2011,1,31,11.3,#
2011,2,1,11.8,#
2011,2,2,11.3,#
2011,2,3,12.7,#
2011,2,4,10.6,#
2011,2,5,11.4,#
2011,2,6,14.8,C
2011,2,7,14.7,C
2011,2,8,15.7,C
2011,2,9,16.1,#
2011,2,10,15.4,#
2011,2,11,14.9,#
2011,2,12,13.0,C
2011,2,13,11.3,C
2011,2,14,8.7,#
2011,2,15,10.7,#
2011,2,16,11.2,#
2011,2,17,14.9,#
2011,2,18,13.8,#
2011,2,19,12.5,#
2011,2,20,13.1,C
2011,2,21,14.1,#
2011,2,22,14.6,#
2011,2,23,15.4,#
2011,2,24,14.1,#
2011,2,25,16.9,#
2011,2,26,16.4,#
2011,2,27,17.7,C
2011,2,28,15.5,#
2011,3,1,18.3,#
2011,3,2,16.6,#
2011,3,3,15.0,C
2011,3,4,14.6,#
2011,3,5,14.9,C
2011,3,6,17.4,#
2011,3,7,15.6,#
2011,3,8,12.8,#
2011,3,9,13.1,C
2011,3,10,15.1,C
2011,3,11,15.9,#
2011,3,12,16.9,C
2011,3,13,15.3,#
2011,3,14,19.2,C
2011,3,15,15.0,C
2011,3,16,13.3,#
2011,3,17,14.8,#
2011,3,18,14.6,C
2011,3,19,15.6,C
2011,3,20,18.1,#
2011,3,21,19.6,#
2011,3,22,16.2,C
2011,3,23,14.6,#
2011,3,24,15.1,#
2011,3,25,14.9,#
2011,3,26,16.4,#
2011,3,27,14.4,#
2011,3,28,14.6,#
2011,3,29,14.9,#
2011,3,30,16.9,#
2011,3,31,16.6,#
2011,4,1,16.7,#
2011,4,2,18.6,#
2011,4,3,17.9,#
2011,4,4,17.8,#
2011,4,5,17.6,C
2011,4,6,17.4,#
2011,4,7,18.7,#
2011,4,8,18.3,#
2011,4,9,19.5,#
2011,4,10,20.2,#
2011,4,11,19.2,#
2011,4,12,20.4,#
2011,4,13,20.0,#
2011,4,14,19.1,#
2011,4,15,20.5,#
2011,4,16,21.4,C
2011,4,17,23.2,C
2011,4,18,21.7,C
2011,4,19,19.7,#
2011,4,20,20.4,#
2011,4,21,21.0,#
2011,4,22,20.6,#
2011,4,23,19.4,#
2011,4,24,16.5,#
2011,4,25,18.4,C
2011,4,26,19.7,#
2011,4,27,23.1,C
2011,4,28,23.5,#
2011,4,29,23.0,#
2011,4,30,23.3,#
2011,5,1,24.1,#
2011,5,2,25.4,#
2011,5,3,25.8,#
2011,5,4,23.6,#
2011,5,5,22.3,#
2011,5,6,23.9,#
2011,5,7,25.8,#
2011,5,8,25.9,#
2011,5,9,25.9,#
2011,5,10,26.5,#
2011,5,11,27.7,#
2011,5,12,27.9,#
2011,5,13,24.7,#
2011,5,14,23.5,#
2011,5,15,23.8,#
2011,5,16,23.9,#
2011,5,17,22.7,C
2011,5,18,22.4,#
2011,5,19,23.8,#
2011,5,20,24.6,#
2011,5,21,24.4,C
2011,5,22,23.2,#
2011,5,23,23.3,#
2011,5,24,19.8,C
2011,5,25,21.2,#
2011,5,26,22.8,C
2011,5,27,22.8,#
2011,5,28,23.3,#
2011,5,29,23.8,#
2011,5,30,23.7,#
2011,5,31,22.8,#
2011,6,1,26.7,#
2011,6,2,25.9,#
2011,6,3,26.0,#
2011,6,4,27.1,#
2011,6,5,27.8,#
2011,6,6,28.1,#
2011,6,7,27.7,#
2011,6,8,28.0,#
2011,6,9,25.9,#
2011,6,10,26.0,#
2011,6,11,27.4,#
2011,6,12,25.1,#
2011,6,13,26.8,#
2011,6,14,28.6,C
2011,6,15,28.1,#
2011,6,16,24.9,#
2011,6,17,25.9,#
2011,6,18,27.5,#
2011,6,19,28.4,#
2011,6,20,27.0,#
2011,6,21,26.3,#
2011,6,22,25.7,#
2011,6,23,27.2,C
2011,6,24,27.2,#
2011,6,25,27.1,#
2011,6,26,28.2,#
2011,6,27,27.9,#
2011,6,28,25.0,#
2011,6,29,24.9,#
2011,6,30,25.0,#
2011,7,1,26.9,#
2011,7,2,27.7,#
2011,7,3,27.6,#
2011,7,4,27.2,#
2011,7,5,27.7,#
2011,7,6,27.9,#
2011,7,7,28.0,#
2011,7,8,28.7,C
2011,7,9,28.7,C
2011,7,10,28.0,C
2011,7,11,27.3,#
2011,7,12,27.0,C
2011,7,13,26.3,#
2011,7,14,25.9,#
2011,7,15,25.4,#
2011,7,16,25.1,C
2011,7,17,27.2,C
2011,7,18,25.8,#
2011,7,19,25.6,#
2011,7,20,26.3,C
2011,7,21,26.9,#
2011,7,22,27.2,C
2011,7,23,27.9,C
2011,7,24,26.9,#
2011,7,25,28.4,#
2011,7,26,27.8,#
2011,7,27,28.4,#
2011,7,28,26.4,#
2011,7,29,26.6,#
2011,7,30,27.0,#
2011,7,31,27.3,#
2011,8,1,26.3,#
2011,8,2,26.4,#
2011,8,3,27.3,#
2011,8,4,27.4,#
2011,8,5,27.2,#
2011,8,6,27.7,#
2011,8,7,28.8,C
2011,8,8,26.8,C
2011,8,9,25.6,#
2011,8,10,25.3,C
2011,8,11,25.9,C
2011,8,12,27.8,#
2011,8,13,27.1,C
2011,8,14,27.9,C
2011,8,15,27.4,C
2011,8,16,26.8,C
2011,8,17,26.6,#
2011,8,18,26.2,C
2011,8,19,27.3,#
2011,8,20,25.4,#
2011,8,21,27.1,C
2011,8,22,26.9,#
2011,8,23,27.8,C
2011,8,24,28.6,C
2011,8,25,27.9,#
2011,8,26,27.2,#
2011,8,27,26.8,#
2011,8,28,26.9,#
2011,8,29,29.1,#
2011,8,30,28.3,#
2011,8,31,28.2,C
2011,9,1,27.9,#
2011,9,2,27.5,#
2011,9,3,26.0,C
2011,9,4,25.6,#
2011,9,5,26.6,#
2011,9,6,26.7,#
2011,9,7,27.7,C
2011,9,8,27.3,#
2011,9,9,27.7,C
2011,9,10,27.1,C
2011,9,11,26.3,#
2011,9,12,26.1,C
2011,9,13,26.9,C
2011,9,14,26.8,#
2011,9,15,23.3,C
2011,9,16,27.7,#
2011,9,17,27.2,C
2011,9,18,27.0,#
2011,9,19,25.5,#
2011,9,20,25.4,#
2011,9,21,23.3,C
2011,9,22,24.7,#
2011,9,23,23.5,C
2011,9,24,24.5,C
2011,9,25,23.6,#
2011,9,26,25.3,C
2011,9,27,26.6,#
2011,9,28,25.3,C
2011,9,29,25.8,#
2011,9,30,27.3,#
2011,10,1,25.8,#
2011,10,2,24.4,#
2011,10,3,21.7,C
2011,10,4,22.0,#
2011,10,5,23.2,#
2011,10,6,23.8,C
2011,10,7,25.0,C
2011,10,8,24.7,C
2011,10,9,24.7,#
2011,10,10,24.5,#
2011,10,11,24.4,C
2011,10,12,23.9,C
2011,10,13,24.4,C
2011,10,14,25.0,C
2011,10,15,23.8,#
2011,10,16,22.4,C
2011,10,17,22.6,C
2011,10,18,22.4,C
2011,10,19,22.9,#
2011,10,20,21.9,C
2011,10,21,21.4,C
2011,10,22,23.0,C
2011,10,23,23.3,#
2011,10,24,21.1,#
2011,10,25,22.0,#
2011,10,26,21.4,C
2011,10,27,21.4,#
2011,10,28,23.3,C
2011,10,29,20.7,C
2011,10,30,22.2,C
2011,10,31,23.2,#
2011,11,1,22.4,C
2011,11,2,22.7,C
2011,11,3,24.4,#
2011,11,4,24.8,#
2011,11,5,23.6,C
2011,11,6,25.8,C
2011,11,7,23.9,C
2011,11,8,21.9,#
2011,11,9,19.2,C
2011,11,10,17.9,C
2011,11,11,18.3,#
2011,11,12,17.7,#
2011,11,13,19.1,#
2011,11,14,22.6,#
2011,11,15,22.6,#
2011,11,16,21.9,#
2011,11,17,22.7,C
2011,11,18,22.9,C
2011,11,19,23.6,C
2011,11,20,21.6,C
2011,11,21,20.9,C
2011,11,22,20.5,#
2011,11,23,20.4,#
2011,11,24,19.0,C
2011,11,25,19.4,#
2011,11,26,20.4,C
2011,11,27,19.0,#
2011,11,28,19.5,#
2011,11,29,21.6,C
2011,11,30,20.9,#
2011,12,1,15.1,#
2011,12,2,13.3,#
2011,12,3,10.8,#
2011,12,4,13.3,#
2011,12,5,17.6,#
2011,12,6,17.6,#
2011,12,7,20.4,#
2011,12,8,16.1,#
2011,12,9,13.6,C
2011,12,10,11.3,#
2011,12,11,9.9,C
2011,12,12,9.7,C
2011,12,13,11.2,#
2011,12,14,17.5,#
2011,12,15,15.1,C
2011,12,16,15.4,#
2011,12,17,14.5,#
2011,12,18,13.3,#
2011,12,19,13.4,#
2011,12,20,16.8,#
2011,12,21,17.5,#
2011,12,22,16.4,#
2011,12,23,12.6,#
2011,12,24,11.0,#
2011,12,25,8.8,C
2011,12,26,14.6,#
2011,12,27,14.8,C
2011,12,28,13.4,C
2011,12,29,14.6,C
2011,12,30,16.9,C
2011,12,31,14.8,C
2012,1,1,14.3,C
2012,1,2,15.3,#
2012,1,3,15.2,C
2012,1,4,12.2,C
2012,1,5,10.6,#
2012,1,6,10.9,C
2012,1,7,13.4,C
2012,1,8,14.3,#
2012,1,9,12.8,C
2012,1,10,12.2,C
2012,1,11,15.3,C
2012,1,12,13.9,#
2012,1,13,15.1,#
2012,1,14,16.4,C
2012,1,15,16.5,C
2012,1,16,13.1,#
2012,1,17,15.3,C
2012,1,18,15.5,C
2012,1,19,16.2,#
2012,1,20,16.3,#
2012,1,21,15.5,C
2012,1,22,10.9,#
2012,1,23,9.8,C
2012,1,24,9.4,#
2012,1,25,8.0,C
2012,1,26,9.2,C
2012,1,27,13.7,C
2012,1,28,13.4,C
2012,1,29,13.6,C
2012,1,30,13.4,C
2012,1,31,13.0,#
2012,2,1,12.5,#
2012,2,2,14.7,C
2012,2,3,12.9,#
2012,2,4,13.7,C
2012,2,5,16.0,C
2012,2,6,18.2,C
2012,2,7,11.8,#
2012,2,8,11.5,#
2012,2,9,11.2,#
2012,2,10,12.8,#
2012,2,11,12.6,C
2012,2,12,13.5,C
2012,2,13,16.4,#
2012,2,14,18.6,C
2012,2,15,16.2,#
2012,2,16,15.1,#
2012,2,17,13.5,C
2012,2,18,11.9,C
2012,2,19,12.5,C
2012,2,20,12.9,C
2012,2,21,16.5,C
2012,2,22,17.9,C
2012,2,23,19.6,#
2012,2,24,16.2,C
2012,2,25,14.7,#
2012,2,26,12.5,C
2012,2,27,10.8,C
2012,2,28,10.0,#
2012,2,29,13.9,#
2012,3,1,15.3,#
2012,3,2,17.2,C
2012,3,3,16.9,#
2012,3,4,16.7,C
2012,3,5,20.1,C
2012,3,6,22.2,#
2012,3,7,17.6,C
2012,3,8,16.3,#
2012,3,9,14.2,C
2012,3,10,12.6,#
2012,3,11,11.9,C
2012,3,12,11.6,C
2012,3,13,13.0,C
2012,3,14,14.8,C
2012,3,15,15.3,C
2012,3,16,19.1,C
2012,3,17,20.3,C
2012,3,18,18.9,#
2012,3,19,19.0,#
2012,3,20,18.9,#
2012,3,21,17.7,C
2012,3,22,17.5,C
2012,3,23,17.0,#
2012,3,24,13.8,#
2012,3,25,15.1,C
2012,3,26,16.1,C
2012,3,27,18.0,C
2012,3,28,19.2,#
2012,3,29,19.9,C
2012,3,30,21.0,#
2012,3,31,20.5,C
2012,4,1,18.7,C
2012,4,2,20.3,#
2012,4,3,21.7,#
2012,4,4,20.8,#
2012,4,5,20.8,#
2012,4,6,18.0,C
2012,4,7,18.3,#
2012,4,8,20.4,C
2012,4,9,20.4,C
2012,4,10,21.7,#
2012,4,11,23.2,#
2012,4,12,22.6,C
2012,4,13,24.9,C
2012,4,14,25.7,#
2012,4,15,25.6,C
2012,4,16,22.7,#
2012,4,17,20.2,#
2012,4,18,21.1,C
2012,4,19,21.7,#
2012,4,20,20.8,C
2012,4,21,20.7,C
2012,4,22,20.0,C
2012,4,23,24.0,C
2012,4,24,25.6,C
2012,4,25,24.0,C
2012,4,26,21.0,C
2012,4,27,21.0,#
2012,4,28,21.6,C
2012,4,29,24.5,#
2012,4,30,27.0,C
2012,5,1,27.3,C
2012,5,2,27.5,C
2012,5,3,27.7,#
2012,5,4,23.9,#
2012,5,5,24.4,C
2012,5,6,24.5,#
2012,5,7,23.6,C
2012,5,8,25.8,#
2012,5,9,27.8,#
2012,5,10,28.0,#
2012,5,11,25.2,C
2012,5,12,24.9,#
2012,5,13,25.4,#
2012,5,14,25.9,#
2012,5,15,26.3,C
2012,5,16,25.7,#
2012,5,17,25.3,C
2012,5,18,25.1,#
2012,5,19,24.8,C
2012,5,20,25.1,#
2012,5,21,25.2,#
2012,5,22,24.6,#
2012,5,23,24.7,#
2012,5,24,25.4,#
2012,5,25,26.5,#
2012,5,26,25.8,C
2012,5,27,25.6,C
2012,5,28,25.2,#
2012,5,29,24.7,#
2012,5,30,25.4,#
2012,5,31,24.6,C
2012,6,1,25.2,C
2012,6,2,24.9,C
2012,6,3,25.1,C
2012,6,4,25.7,#
2012,6,5,24.4,C
2012,6,6,25.6,#
2012,6,7,27.3,#
2012,6,8,28.0,C
2012,6,9,27.0,C
2012,6,10,27.7,C
2012,6,11,28.9,C
2012,6,12,26.6,C
2012,6,13,24.8,#
2012,6,14,24.4,C
2012,6,15,26.6,C
2012,6,16,25.3,C
2012,6,17,25.6,#
2012,6,18,26.1,#
2012,6,19,26.6,C
2012,6,20,27.1,C
2012,6,21,26.7,#
2012,6,22,26.1,#
2012,6,23,27.7,C
2012,6,24,28.0,C
2012,6,25,27.8,#
2012,6,26,28.0,C
2012,6,27,28.2,C
2012,6,28,27.2,#
2012,6,29,26.8,#
2012,6,30,26.1,C
2012,7,1,26.3,C
2012,7,2,27.2,C
2012,7,3,26.5,C
2012,7,4,26.1,C
2012,7,5,26.3,C
2012,7,6,27.0,#
2012,7,7,26.6,C
2012,7,8,27.9,C
2012,7,9,27.8,C
2012,7,10,28.4,C
2012,7,11,27.8,C
2012,7,12,28.4,#
2012,7,13,27.6,#
2012,7,14,26.7,#
2012,7,15,29.0,C
2012,7,16,28.2,C
2012,7,17,28.7,#
2012,7,18,25.6,C
2012,7,19,27.5,#
2012,7,20,28.0,#
2012,7,21,26.3,C
2012,7,22,26.6,C
2012,7,23,25.5,#
2012,7,24,25.9,C
2012,7,25,24.3,C
2012,7,26,25.1,C
2012,7,27,25.0,#
2012,7,28,24.9,C
2012,7,29,25.5,#
2012,7,30,25.2,C
2012,7,31,26.9,#
2012,8,1,27.1,#
2012,8,2,28.6,#
2012,8,3,28.2,C
2012,8,4,29.2,C
2012,8,5,28.1,C
2012,8,6,25.5,C
2012,8,7,26.7,C
2012,8,8,28.4,#
2012,8,9,28.1,C
2012,8,10,28.5,C
2012,8,11,25.4,C
2012,8,12,25.6,C
2012,8,13,26.2,#
2012,8,14,25.9,C
2012,8,15,26.0,#
2012,8,16,25.9,C
2012,8,17,27.4,C
2012,8,18,27.9,C
2012,8,19,27.1,#
2012,8,20,27.0,C
2012,8,21,27.3,C
2012,8,22,26.1,C
2012,8,23,24.5,#
2012,8,24,27.0,#
2012,8,25,27.8,#
2012,8,26,29.6,C
2012,8,27,27.3,C
2012,8,28,27.7,C
2012,8,29,25.5,C
2012,8,30,27.9,C
2012,8,31,26.1,#
2012,9,1,25.6,#
2012,9,2,26.2,#
2012,9,3,26.4,C
2012,9,4,25.7,#
2012,9,5,25.4,C
2012,9,6,26.3,#
2012,9,7,27.0,#
2012,9,8,25.6,#
2012,9,9,27.1,#
2012,9,10,26.5,#
2012,9,11,27.5,C
2012,9,12,27.1,#
2012,9,13,26.4,C
2012,9,14,25.3,#
2012,9,15,24.8,#
2012,9,16,23.5,#
2012,9,17,23.0,C
2012,9,18,22.8,#
2012,9,19,24.2,C
2012,9,20,26.2,C
2012,9,21,26.8,#
2012,9,22,25.6,#
2012,9,23,25.7,C
2012,9,24,24.9,#
2012,9,25,24.9,#
2012,9,26,24.7,#
2012,9,27,23.2,#
2012,9,28,26.8,#
2012,9,29,24.8,#
2012,9,30,23.6,#
2012,10,1,25.0,#
2012,10,2,24.8,#
2012,10,3,23.9,C
2012,10,4,22.6,#
2012,10,5,25.0,C
2012,10,6,25.1,#
2012,10,7,24.9,#
2012,10,8,24.9,C
2012,10,9,23.5,C
2012,10,10,23.7,C
2012,10,11,22.7,C
2012,10,12,21.6,C
2012,10,13,20.9,C